AirNav   Bose Proflight Series 2 Wireless viation Headset
 
 253 users online  

E67 Kearny Airport
Kearny, Arizona, USA

GOING TO KEARNY?


FAA INFORMATION EFFECTIVE 10 OCTOBER 2019

Location

FAA Identifier: E67
Lat/Long: 33-02-49.9000N 110-54-32.6000W
33-02.831667N 110-54.543333W
33.0471944,-110.9090556
(estimated)
Elevation: 1833 ft. / 559 m (estimated)
Variation: 12E (1985)
From city: 1 mile S of KEARNY, AZ
Time zone: UTC -7 (year round; does not observe DST)
Zip code: 85237

Airport Operations

Airport use: Open to the public
Activation date: 05/1962
Control tower: no
ARTCC: ALBUQUERQUE CENTER
FSS: PRESCOTT FLIGHT SERVICE STATION
NOTAMs facility: PRC (NOTAM-D service available)
Attendance: MON-FRI 0900-1700
EXCEPT HOLIDAYS
Wind indicator: yes
Segmented circle: no

Airport Communications

CTAF/UNICOM: 122.95

Airport Services

Parking: tiedowns
Airframe service: MAJOR
Powerplant service: MAJOR

Runway Information

Runway 8/26

Dimensions: 3400 x 60 ft. / 1036 x 18 m
Surface: concrete, in good condition
Weight bearing capacity: 
Single wheel: 12.5
RUNWAY 8  RUNWAY 26
Latitude: 33-02.851667N33-02.813000N
Longitude: 110-54.876000W110-54.211667W
Traffic pattern: leftleft
Displaced threshold: 195 ft.200 ft.
Markings: basic, in good conditionbasic, in good condition
Obstructions: 14 ft. tree, 240 ft. from runway, 35 ft. right of centerline, 2:1 slope to clear
+6 FT. BRUSH 100-200 FT. FROM THRESHOLD, 60-125 FT. RIGHT OF CENTERLINE.
20 ft. tree, 215 ft. from runway
RY 26 10-20 FT BRUSH & TREES 0- 200 FT FM EOR, 45-125 FT LEFT OF CNTRLN.

Airport Ownership and Management from official FAA records

Ownership: Publicly-owned
Owner: TOWN OF KEARNY
912-C, TILBURY DRIVE
KEARNY, AZ 85137
Phone 520-363-5547
TOWN FAX NUMBER 520-363-7527.
Manager: ANNA FLORES
912-C, TILBURY DRIVE P.O. BOX 639
KEARNY, AZ 85137
Phone 520-363-5547
TOWN MANAGER.

Airport Operational Statistics

Aircraft based on the field: 4
Single engine airplanes: 3
Ultralights: 1
    
Aircraft operations: avg 23/week *
92% transient general aviation
4% local general aviation
4% military
* for 12-month period ending 22 April 2017

Additional Remarks

FOR NOISE ABATEMENT AVOID SCHOOLS AND HOMES.
MEDICAL HELICOPTER BASE 1 NM NORTHWEST.
FOR AIRPORT CONDITIONS & INFORMATION CALL FBO - LITTLE FLYERS - ROGER STERN 520-363-5175.
FOR CD CTC ALBUQUERQUE ARTCC AT 505-856-4861.
BIRDS, WILDFLIFE, MILITARY OPS INVOF ARPT.
EXPECT TURBULENCE ON RWY 26 APCH WITH WIND FROM N AND ON DEP RWY 26.
CALM WIND USE RWY 8. RAPIDLY RISING TERRAIN ALL QUADRANTS EXCEPT SE QUADRANT.
NO LIGHTING ON AIRPORT, NIGHT OPERATIONS NOT RECOMMENDED.
FENCE 270 FT L/R OFF RWY 26 END.
FENCE 240 FT L/R OFF RWY 8 END.
DITCH BOTH SIDES RWY 8 END, 60 FT L/R OF CENTERLINE WITH 6 FT DROPS.

Instrument Procedures

There are no published instrument procedures at E67.

Some nearby airports with instrument procedures:

P13 - San Carlos Apache Airport (22 nm NE)
P08 - Coolidge Municipal Airport (27 nm W)
KIWA - Phoenix-Mesa Gateway Airport (41 nm NW)
KAVQ - Marana Regional Airport (41 nm S)
KCGZ - Casa Grande Municipal Airport (44 nm W)
 
Loc | Ops | Rwys | IFR | FBO | Links
Com | Nav | Svcs | Stats | Notes
Area around E67 (Kearny Airport)
 
Road maps at: MapQuest Bing Google
 
Aerial photo
WARNING: Photo may not be current or correct
Aerial photo of E67 (Kearny Airport)
Photo taken 18-Nov-2011
looking south.

Do you have a better or more recent aerial photo of Kearny Airport that you would like to share? If so, please send us your photo.

 
Sectional chart

 
Airport distance calculator
Flying to Kearny Airport? Find the distance to fly.

From to E67

Sunrise and sunset
Times for 14-Oct-2019
 Local
(UTC-7)
 Zulu
(UTC)
Morning civil twilight06:0313:03
Sunrise06:2813:28
Sunset17:5100:51
Evening civil twilight18:1601:16

Current date and time
Zulu (UTC)  14-Oct-2019 09:04:14
Local (UTC-7)  14-Oct-2019 02:04:14
 
METAR
KP08 
27nm W 
140855Z AUTO 13006KT 10SM CLR 18/M01 A2989 RMK AO2
KIWA 
40nm W 
140855Z AUTO 11005KT 10SM CLR 17/00 A2988 RMK AO2 T01691001
KAVQ 
41nm S 
140855Z AUTO 11006KT 10SM CLR 19/00 A2991 RMK AO2 T01880002
KCGZ 
44nm W 
140856Z AUTO 00000KT 10SM CLR 20/01 A2988 RMK AO2 SLP106 T02000006 51007
KCHD 
47nm W 
140347Z 34005KT 10SM CLR 25/02 A2982 RMK LAST
KFFZ 
48nm NW 
140854Z AUTO 07005KT 10SM CLR 22/02 A2986 RMK AO2 SLP090 T02170022 51007
TAF
KIWA 
40nm W 
140522Z 1406/1506 12006KT P6SM SKC FM142000 25006KT P6SM FEW080 FM150300 09005KT P6SM FEW080 AMD LTD TO CLD VIS AND WIND TIL 141200
NOTAMs
Click for the latest NOTAMs
NOTAMs are issued by the DoD/FAA and will open in a separate window not controlled by AirNav.

 

 
 

Would you like to see your business listed on this page?

 If your business provides an interesting product or service to pilots, flight crews, aircraft, or users of the Kearny Airport, you should consider listing it here.  To start the listing process, click on the button below
 
Add a business
 

Other Pages about Kearny Airport

www.townofkearny.com/departments.html#airport
 
Update a link
 
Copyright © AirNav, LLC. All rights reserved. Privacy Policy  Contact